951  
NZUS93 KARX 190810  
HRRWXR  
 
CURRENT HOURLY OBSERVATIONS ACROSS  
MUCH OF THE UPPER MISSISSIPPI VALLEY  
NATIONAL WEATHER SERVICE LA CROSSE WI  
200 AM CST FRI DEC 19 2014  
 
   
..SOUTHEAST MINNESOTA
 
 
 
CITY SKY/WX TMP DP RH WIND PRES REMARKS  
ROCHESTER CLOUDY 21 17 84 SE3 30.25S  
ROCHESTER/MAYO CLOUDY 22 16 78 SE5 30.26S WCI 15  
WINONA CLOUDY 25 19 80 S3 30.31R  
AUSTIN CLOUDY 21 19 93 S3 30.25S  
ALBERT LEA CLOUDY 25 21 86 SE5 30.24S WCI 19  
DODGE CENTER CLOUDY 21 19 93 S3 30.24S  
PRESTON CLOUDY 21 17 83 CALM 30.26S  
OWATONNA CLOUDY 23 18 80 SE5 30.25S WCI 17  
FARIBAULT CLOUDY 21 18 86 SE3 30.26S  

 
   
..ELSEWHERE IN MINNESOTA
 
 
 
CITY SKY/WX TMP DP RH WIND PRES REMARKS  
MINNEAPOLIS CLOUDY 21 15 78 SE6 30.28S WCI 13  
INTNL FALLS LGT SNOW 21 17 84 S3 30.19S FOG  
DULUTH FLURRIES 20 18 92 S7 30.21S WCI 11  
RED WING CLOUDY 23 16 74 S3 30.28S  
REDWOOD FALLS CLOUDY 25 21 85 SE9 30.22S WCI 15  
MANKATO CLOUDY 23 18 80 SE7 30.24F WCI 15  
WORTHINGTON CLOUDY 27 25 93 S7 30.19S WCI 19  
FAIRMONT CLOUDY 25 19 80 S7 30.22S WCI 17  

 
   
..SOUTHWEST WISCONSIN
 
 
 
CITY SKY/WX TMP DP RH WIND PRES REMARKS  
LA CROSSE CLOUDY 26 18 71 SW6 30.30R WCI 19  
PRAIRIE DU CHI CLOUDY 26 18 72 CALM 30.29S  
BOSCOBEL CLOUDY 26 18 71 CALM 30.30R  
LONE ROCK CLOUDY 29 19 66 SW5 30.30R WCI 24  
PLATTEVILLE CLOUDY 24 20 82 CALM 30.28R  
FORT MC COY CLOUDY 25 20 82 CALM 30.30R  
CAMP DOUGLAS CLOUDY 24 24 99 W7 30.28R WCI 16  
VIROQUA CLOUDY 23 20 89 NW3 30.25S  
WIS DELLS CLOUDY 25 20 83 CALM 30.27R  

 
   
..ELSEWHERE IN WISCONSIN
 
 
 
CITY SKY/WX TMP DP RH WIND PRES REMARKS  
MILWAUKEE CLOUDY 28 20 71 W8 30.27R WCI 20  
MADISON CLOUDY 26 20 77 CALM 30.27S  
GREEN BAY CLEAR 18 15 88 CALM 30.28R  
EAU CLAIRE CLOUDY 24 19 81 S3 30.27S  
BLACK RVR FLS CLOUDY 25 20 83 CALM 30.28R  
MEDFORD CLOUDY 20 19 93 CALM 30.23S  
WAUSAU CLEAR 17 14 88 NW5 30.24S WCI 10  
WIS RAPIDS CLOUDY 23 19 85 CALM 30.28S  
MARSHFIELD CLOUDY 24 19 81 CALM 30.25S  
RICE LAKE CLOUDY 23 20 89 SW6 30.28R WCI 15  

 
   
..NORTHEAST IOWA
 
 
 
CITY SKY/WX TMP DP RH WIND PRES REMARKS  
DECORAH CLOUDY 23 19 86 CALM 30.26R  
MASON CITY CLOUDY 23 19 85 S6 30.27R WCI 16  
CHARLES CITY CLOUDY 23 19 86 CALM 30.27S  
OELWEIN CLOUDY 23 19 86 CALM 30.28R  

 
   
..ELSEWHERE IN IOWA
 
 
 
CITY SKY/WX TMP DP RH WIND PRES REMARKS  
DES MOINES FRZ DRZL 28 24 85 SE3 30.28S  
IOWA CITY CLOUDY 26 19 74 CALM 30.32R  
FORT DODGE CLOUDY 27 21 80 S5 30.25S WCI 21  

 
   
..NORTHERN ILLINOIS
 
 
 
CITY SKY/WX TMP DP RH WIND PRES REMARKS  
CHICAGO-OHARE CLOUDY 27 22 81 NW8 30.27R WCI 19  
CHICAGO-MIDWAY FLURRIES 29 22 75 NW7 30.27R WCI 22  
MOLINE PTCLDY 18 14 84 E3 30.31S  
ROCKFORD CLOUDY 27 20 75 N3 30.30R  
PEORIA CLEAR 21 17 84 CALM 30.30S  

 
 
NOTE: "FAIR" INDICATES FEW OR NO CLOUDS BELOW 12,000 FEET WITH NO  
SIGNIFICANT WEATHER AND/OR OBSTRUCTIONS TO VISIBILITY. WIND  
SPEEDS ARE IN MILES-PER-HOUR.  
 
CLICK HERE TO GO TO PREVIOUS BULLETINS.

The Nexlab WI Page
The Nexlab IA Page
The Nexlab MN Page Main Text Page